GW1145 Weather Reports


Display with metric or nautical units.
time (UTC)temp
F
wind
direction
speed
MPH
gust
MPH
rain 1hr
in
rain 24hr
in
rain mn
in
humidity
%
barometer
mb
20260506135146 44 247 0.0 0.0 0.04 0.51 0.07 93 1008.8
20260506135040 44 244 0.0 0.0 0.04 0.51 0.07 93 1008.8
20260506134936 44 275 0.0 0.0 0.04 0.50 0.07 93 1008.9
20260506134831 44 275 0.0 0.0 0.04 0.50 0.07 92 1008.8
20260506134728 44 273 0.0 0.0 0.05 0.50 0.07 92 1008.9
20260506134622 44 245 0.0 0.0 0.06 0.50 0.07 92 1008.9
20260506134514 44 245 0.0 0.0 0.07 0.50 0.07 92 1008.8
20260506134411 44 245 0.0 0.0 0.07 0.50 0.07 92 1008.8
20260506134304 44 245 0.0 0.0 0.07 0.50 0.07 92 1008.8
20260506134158 44 237 0.0 0.0 0.07 0.50 0.07 92 1008.8
20260506133836 44 233 0.0 0.0 0.03 0.49 0.06 92 1008.8
20260506133511 44 294 0.0 0.0 0.03 0.49 0.06 92 1008.9
20260506133406 44 294 0.0 0.0 0.03 0.48 0.06 92 1008.9
20260506133259 44 294 0.0 0.0 0.03 0.48 0.06 92 1008.9
20260506133153 44 294 0.0 0.0 0.03 0.48 0.05 92 1008.9
20260506133051 44 294 0.0 0.0 0.04 0.48 0.05 92 1008.9
20260506132949 44 294 0.0 0.0 0.04 0.48 0.05 92 1008.9
20260506132842 44 294 0.0 0.0 0.05 0.48 0.05 92 1008.9
20260506132738 44 294 0.0 0.0 0.06 0.48 0.05 92 1008.9
20260506132632 44 294 0.0 0.0 0.06 0.48 0.05 92 1008.9
20260506132307 44 258 0.0 0.0 0.06 0.48 0.05 92 1009.0
20260506132200 44 258 0.0 0.0 0.06 0.48 0.05 92 1008.9
20260506132053 44 258 0.0 0.0 0.06 0.48 0.05 92 1008.9
20260506131733 44 258 0.0 0.0 0.00 0.48 0.04 92 1008.9
20260506131627 44 258 0.0 0.0 0.00 0.48 0.04 92 1008.9
20260506131521 44 258 0.0 0.0 0.00 0.48 0.04 92 1008.9
20260506131414 44 258 0.0 0.0 0.00 0.47 0.04 92 1009.0
20260506131310 44 258 0.0 0.0 0.00 0.47 0.04 92 1008.9
20260506131208 44 258 0.0 0.0 0.00 0.47 0.03 92 1009.0
20260506131102 44 258 0.0 0.0 0.00 0.47 0.03 92 1009.0
20260506131000 44 295 0.0 0.0 0.00 0.47 0.03 92 1009.0
20260506130856 44 312 0.0 0.0 0.00 0.47 0.03 92 1009.0
20260506130749 44 312 0.0 0.0 0.00 0.47 0.03 92 1009.0
20260506130644 44 312 0.0 0.0 0.00 0.47 0.03 92 1009.0
20260506130320 44 257 0.0 0.0 0.00 0.47 0.03 91 1009.0
20260506130215 44 247 0.0 0.0 0.00 0.47 0.03 91 1009.0
20260506130111 44 247 0.0 0.0 0.00 0.47 0.03 91 1009.0
20260506130006 44 247 0.0 0.0 0.00 0.47 0.03 91 1008.9
20260506125901 44 247 0.0 0.0 0.00 0.47 0.03 91 1008.9
20260506125759 44 247 0.0 0.0 0.00 0.47 0.03 91 1009.0
20260506125656 44 246 0.0 0.0 0.00 0.47 0.03 91 1009.0
20260506125552 44 258 0.0 0.0 0.00 0.46 0.03 91 1009.0
20260506125448 44 302 0.0 0.0 0.00 0.46 0.03 91 1009.0
20260506125127 44 261 0.0 0.0 0.00 0.46 0.03 91 1008.9
20260506125024 44 261 0.0 0.0 0.00 0.46 0.03 91 1008.9
20260506124917 44 261 0.0 0.0 0.00 0.46 0.03 91 1008.9
20260506124814 44 261 0.0 0.0 0.00 0.46 0.03 91 1008.9
20260506124706 44 261 0.0 0.0 0.00 0.46 0.03 91 1008.8
20260506124602 44 261 0.0 0.0 0.00 0.46 0.03 91 1008.8
20260506124456 44 261 0.0 0.0 0.00 0.46 0.03 91 1008.8
20260506124129 44 244 0.0 0.0 0.00 0.46 0.03 91 1008.8
20260506124023 44 244 0.0 0.0 0.00 0.46 0.03 91 1008.9
20260506123701 44 175 0.0 0.0 0.00 0.45 0.03 90 1008.9
20260506123554 44 273 0.0 0.0 0.00 0.45 0.03 90 1008.9
20260506123450 44 259 0.0 0.0 0.00 0.45 0.02 91 1008.9
20260506123129 44 244 0.0 0.0 0.00 0.45 0.02 90 1008.9
20260506123025 44 244 0.0 0.0 0.00 0.45 0.02 90 1008.9
20260506122923 44 244 0.0 0.0 0.00 0.45 0.02 90 1008.8
20260506122819 44 244 0.0 0.0 0.00 0.45 0.02 90 1008.8
20260506122714 44 244 0.0 0.0 0.00 0.45 0.02 90 1008.8
20260506122355 44 244 0.0 0.0 0.00 0.45 0.02 90 1008.8
20260506122251 44 244 0.0 0.0 0.00 0.45 0.02 90 1008.8
20260506122147 44 244 0.0 0.0 0.00 0.45 0.02 90 1008.7
20260506122041 44 244 0.0 0.0 0.00 0.45 0.02 90 1008.8
20260506121936 44 244 0.0 0.0 0.00 0.45 0.02 90 1008.7
20260506121833 44 244 0.0 0.0 0.00 0.45 0.02 90 1008.8
20260506121514 45 244 0.0 0.0 0.00 0.45 0.02 90 1008.7
20260506121410 45 244 0.0 0.0 0.00 0.45 0.02 90 1008.7
20260506121307 45 279 0.0 0.0 0.00 0.45 0.02 90 1008.6
20260506121202 45 226 0.0 0.0 0.00 0.44 0.02 90 1008.7
20260506120841 45 268 0.0 0.0 0.00 0.44 0.01 89 1008.7
20260506120738 45 290 0.0 0.0 0.00 0.44 0.01 89 1008.6
20260506120632 45 290 0.0 0.0 0.00 0.44 0.01 89 1008.6
20260506120309 45 308 0.0 3.0 0.00 0.44 0.01 89 1008.6
20260506120205 45 229 0.0 2.0 0.00 0.44 0.01 89 1008.7
20260506120100 45 236 0.0 2.0 0.00 0.44 0.01 89 1008.7
20260506115955 45 218 0.0 2.0 0.00 0.44 0.01 89 1008.7
20260506115848 45 218 0.0 2.0 0.00 0.44 0.01 89 1008.7
20260506115742 45 303 0.0 1.0 0.00 0.44 0.01 89 1008.8
20260506115641 45 303 0.0 3.0 0.00 0.44 0.01 89 1008.8
20260506115534 45 300 0.0 3.0 0.00 0.44 0.01 88 1008.9
20260506115432 45 300 0.0 3.0 0.00 0.44 0.01 89 1008.9
20260506115327 45 309 0.0 3.0 0.00 0.44 0.01 89 1008.9
20260506115222 45 246 0.0 2.0 0.00 0.44 0.01 89 1008.9
20260506114856 45 250 0.0 0.0 0.00 0.44 0.01 88 1009.0
20260506114751 45 250 0.0 6.0 0.00 0.44 0.01 88 1009.0
20260506114426 45 250 0.0 6.0 0.00 0.44 0.01 88 1008.9
20260506114323 45 250 1.0 6.0 0.00 0.44 0.01 88 1009.0
20260506114220 45 209 0.0 6.0 0.00 0.44 0.01 88 1008.9
20260506113412 46 209 1.0 9.0 0.00 0.44 0.00 86 1008.7
20260506113308 46 202 1.0 9.0 0.00 0.44 0.00 86 1008.7
20260506113202 46 271 2.0 9.0 0.00 0.44 0.00 86 1008.6
20260506113056 46 273 2.0 9.0 0.00 0.44 0.00 86 1008.6
20260506112951 46 267 2.0 9.0 0.00 0.44 0.00 86 1008.5
20260506112847 46 247 1.0 9.0 0.00 0.44 0.00 86 1008.5
20260506112745 46 217 1.0 9.0 0.00 0.44 0.00 86 1008.5
20260506112640 46 239 1.0 9.0 0.00 0.44 0.00 86 1008.5
20260506112538 46 240 1.0 9.0 0.00 0.44 0.00 86 1008.5
20260506112434 46 262 1.0 9.0 0.00 0.44 0.00 86 1008.5
20260506112332 46 269 1.0 9.0 0.00 0.44 0.00 86 1008.4
20260506112229 46 227 1.0 9.0 0.00 0.44 0.00 86 1008.4
20260506112125 46 220 0.0 9.0 0.00 0.44 0.00 86 1008.4
20260506112023 47 313 0.0 6.0 0.00 0.44 0.00 86 1008.3
20260506111657 47 291 0.0 7.0 0.00 0.44 0.00 86 1008.3
20260506111552 47 254 0.0 7.0 0.00 0.44 0.00 86 1008.3
20260506111446 47 264 0.0 7.0 0.00 0.44 0.00 86 1008.3
20260506110900 47 297 0.0 0.0 0.00 0.44 0.00 88 1008.1
20260506110756 47 300 0.0 0.0 0.00 0.44 0.00 88 1008.0
20260506110653 47 294 0.0 0.0 0.00 0.44 0.00 89 1008.0
20260506110326 47 285 0.0 0.0 0.00 0.44 0.00 89 1007.9
20260506110222 47 202 0.0 0.0 0.00 0.44 0.00 90 1007.9
20260506110119 47 268 0.0 0.0 0.00 0.44 0.00 90 1007.8
20260506110016 48 315 0.0 1.0 0.00 0.44 0.00 90 1007.8
20260506105909 48 241 0.0 0.0 0.00 0.43 0.00 90 1007.8
20260506105802 48 225 0.0 0.0 0.00 0.43 0.00 90 1007.8
20260506105442 48 257 0.0 0.0 0.00 0.43 0.00 90 1007.7
20260506105339 48 300 0.0 0.0 0.00 0.43 0.00 91 1007.7
20260506105014 48 240 0.0 0.0 0.00 0.43 0.00 90 1007.6
20260506104911 48 245 0.0 0.0 0.00 0.43 0.00 90 1007.6
20260506104805 48 221 0.0 0.0 0.00 0.43 0.00 90 1007.6
20260506104702 48 250 0.0 0.0 0.00 0.43 0.00 90 1007.6
20260506104339 48 276 0.0 0.0 0.00 0.43 0.00 90 1007.5
20260506104234 48 205 0.0 0.0 0.00 0.43 0.00 90 1007.5
20260506104132 48 205 0.0 0.0 0.00 0.43 0.00 90 1007.5
20260506104028 48 205 0.0 0.0 0.00 0.43 0.00 91 1007.5
20260506103700 48 195 0.0 0.0 0.00 0.43 0.00 91 1007.4
20260506103556 48 195 0.0 0.0 0.00 0.43 0.00 91 1007.5
20260506103009 48 279 0.0 0.0 0.00 0.43 0.00 91 1007.4
20260506102901 48 225 0.0 0.0 0.00 0.43 0.00 91 1007.4
20260506102758 48 239 0.0 0.0 0.00 0.43 0.00 91 1007.4
20260506102656 48 216 0.0 0.0 0.00 0.43 0.00 91 1007.4
20260506102328 48 200 0.0 0.0 0.00 0.43 0.00 91 1007.5
20260506102224 48 238 0.0 0.0 0.00 0.43 0.00 91 1007.5
20260506102116 48 238 0.0 0.0 0.00 0.43 0.00 91 1007.5
20260506102012 48 242 0.0 0.0 0.00 0.43 0.00 91 1007.5
20260506101431 48 246 0.0 0.0 0.00 0.43 0.00 91 1007.3
20260506101328 48 246 0.0 0.0 0.00 0.43 0.00 91 1007.3
20260506101221 48 246 0.0 0.0 0.00 0.43 0.00 91 1007.3
20260506101116 48 246 0.0 0.0 0.00 0.43 0.00 91 1007.4
20260506101014 48 246 0.0 0.0 0.00 0.43 0.00 91 1007.3
20260506100907 48 246 0.0 0.0 0.00 0.43 0.00 91 1007.3
20260506100805 48 315 0.0 0.0 0.00 0.43 0.00 91 1007.3
20260506100700 48 206 0.0 0.0 0.00 0.43 0.00 91 1007.2
20260506100552 48 206 0.0 0.0 0.00 0.43 0.00 91 1007.2
20260506100444 48 206 0.0 0.0 0.00 0.43 0.00 91 1007.2
20260506100342 48 206 0.0 0.0 0.00 0.43 0.00 91 1007.2
20260506100240 48 206 0.0 0.0 0.00 0.43 0.00 91 1007.2
20260506100135 48 206 0.0 0.0 0.00 0.43 0.00 91 1007.2
20260506100032 48 206 0.0 0.0 0.00 0.43 0.00 91 1007.2
20260506095927 48 206 0.0 0.0 0.00 0.43 0.00 91 1007.1
20260506095822 48 210 0.0 0.0 0.00 0.43 0.00 91 1007.1
20260506095717 48 210 0.0 0.0 0.00 0.43 0.00 91 1007.1
20260506095614 48 210 0.0 0.0 0.00 0.43 0.00 91 1007.2
20260506095507 48 210 0.0 0.0 0.00 0.43 0.00 91 1007.2
20260506095139 48 268 0.0 0.0 0.00 0.43 0.00 91 1007.0
20260506095033 48 331 0.0 0.0 0.00 0.43 0.00 91 1007.1
20260506094710 48 249 0.0 0.0 0.00 0.43 0.00 91 1007.1
20260506094608 48 249 0.0 0.0 0.00 0.43 0.00 91 1007.1
20260506094506 48 249 0.0 0.0 0.00 0.43 0.00 91 1007.1
20260506094403 48 249 0.0 0.0 0.00 0.43 0.00 91 1007.2
20260506094259 48 200 0.0 0.0 0.00 0.43 0.00 91 1007.2
20260506094155 48 200 0.0 0.0 0.00 0.43 0.00 91 1007.1
20260506094050 48 200 0.0 0.0 0.00 0.43 0.00 91 1007.1
20260506093943 48 223 0.0 0.0 0.00 0.43 0.00 91 1007.2
20260506093839 48 211 0.0 0.0 0.00 0.43 0.00 91 1007.1
20260506093735 48 273 0.0 0.0 0.00 0.43 0.00 91 1007.2
20260506093630 48 273 0.0 0.0 0.00 0.43 0.00 91 1007.2
20260506093526 48 209 0.0 0.0 0.00 0.43 0.00 91 1007.2
20260506093421 48 277 0.0 0.0 0.00 0.43 0.00 91 1007.2
20260506093058 48 210 0.0 0.0 0.00 0.43 0.00 91 1007.2
20260506092956 48 236 0.0 0.0 0.00 0.43 0.00 91 1007.2
20260506092854 48 187 0.0 0.0 0.00 0.43 0.00 91 1007.1
20260506092750 48 196 0.0 0.0 0.00 0.43 0.00 91 1007.2
20260506092647 48 198 0.0 0.0 0.00 0.43 0.00 91 1007.3
20260506092540 48 213 0.0 0.0 0.00 0.43 0.00 91 1007.3
20260506092437 48 215 0.0 0.0 0.00 0.43 0.00 91 1007.3
20260506092335 48 267 0.0 0.0 0.00 0.43 0.00 91 1007.3
20260506092231 48 201 0.0 0.0 0.00 0.43 0.00 91 1007.1
20260506092126 48 217 0.0 0.0 0.00 0.43 0.00 91 1007.2
20260506092019 48 217 0.0 0.0 0.00 0.43 0.00 91 1007.3
20260506091916 48 249 0.0 0.0 0.00 0.43 0.00 91 1007.4
20260506091811 48 231 0.0 0.0 0.00 0.43 0.00 91 1007.5
20260506091453 48 252 0.0 0.0 0.00 0.43 0.00 91 1007.4
20260506091348 48 229 0.0 0.0 0.00 0.43 0.00 91 1007.4
20260506091242 48 275 0.0 0.0 0.00 0.43 0.00 91 1007.3
20260506091137 48 211 0.0 0.0 0.00 0.43 0.00 91 1007.4
20260506091032 48 265 0.0 0.0 0.00 0.43 0.00 91 1007.4
20260506090927 48 219 0.0 0.0 0.00 0.43 0.00 91 1007.5
20260506090820 48 205 0.0 0.0 0.00 0.43 0.00 91 1007.4
20260506090713 48 214 0.0 5.0 0.00 0.43 0.00 91 1007.4
20260506090611 48 200 0.0 5.0 0.00 0.43 0.00 91 1007.3
20260506090508 48 216 0.0 2.0 0.00 0.43 0.00 91 1007.3
20260506090404 48 307 0.0 1.0 0.00 0.43 0.00 91 1007.3
20260506090036 48 258 0.0 1.0 0.00 0.43 0.00 92 1007.2
20260506085931 48 202 0.0 0.0 0.00 0.43 0.00 92 1007.2
20260506085825 48 227 0.0 0.0 0.00 0.43 0.00 92 1007.2
20260506085721 48 249 0.0 0.0 0.00 0.43 0.00 92 1007.1
20260506085618 48 216 0.0 0.0 0.00 0.43 0.00 92 1007.1
20260506085513 48 269 0.0 6.0 0.00 0.43 0.00 92 1007.1
20260506085149 48 242 0.0 4.0 0.00 0.43 0.00 92 1007.1
20260506085042 47 179 0.0 0.0 0.00 0.43 0.00 92 1007.1
20260506084936 47 179 0.0 0.0 0.00 0.43 0.00 92 1007.2
20260506084832 47 223 0.0 0.0 0.00 0.43 0.00 92 1007.1
20260506084726 47 275 0.0 0.0 0.00 0.43 0.00 92 1007.1
20260506084623 47 211 0.0 0.0 0.00 0.43 0.00 92 1007.1
20260506084517 47 223 0.0 0.0 0.00 0.43 0.00 92 1007.1
20260506084149 47 204 0.0 0.0 0.00 0.43 0.00 92 1007.1
20260506084047 47 204 0.0 0.0 0.00 0.43 0.00 92 1007.1
20260506083944 47 204 0.0 0.0 0.00 0.43 0.00 92 1007.1
20260506083837 47 205 0.0 0.0 0.00 0.43 0.00 92 1007.1
20260506083735 47 271 0.0 0.0 0.00 0.43 0.00 92 1007.1
20260506083630 47 271 0.0 0.0 0.00 0.43 0.00 92 1007.1
20260506083526 47 271 0.0 0.0 0.00 0.43 0.00 92 1007.1
20260506083421 48 261 0.0 0.0 0.00 0.43 0.00 92 1007.0
20260506083317 48 261 0.0 0.0 0.00 0.43 0.00 92 1007.1
20260506082957 48 261 0.0 0.0 0.00 0.43 0.00 92 1007.0
20260506082635 48 261 0.0 0.0 0.00 0.43 0.00 92 1007.0
20260506082527 48 261 0.0 0.0 0.00 0.43 0.00 92 1007.0
20260506081943 48 261 0.0 0.0 0.00 0.43 0.00 92 1006.8
20260506081839 48 261 0.0 0.0 0.00 0.43 0.00 92 1006.9
20260506081737 48 261 0.0 0.0 0.00 0.43 0.00 92 1006.9
20260506081632 48 261 0.0 0.0 0.00 0.43 0.00 92 1006.8
20260506081529 48 261 0.0 0.0 0.00 0.43 0.00 92 1006.8
20260506081425 48 261 0.0 0.0 0.00 0.43 0.00 92 1006.8
20260506081322 48 261 0.0 0.0 0.00 0.43 0.00 92 1006.8
20260506081219 48 267 0.0 0.0 0.00 0.43 0.00 92 1006.8
20260506080852 48 267 0.0 0.0 0.00 0.43 0.00 92 1006.8
20260506080746 48 267 0.0 0.0 0.00 0.43 0.00 92 1006.8
20260506080640 48 236 0.0 0.0 0.00 0.43 0.00 93 1006.8
20260506080537 48 235 0.0 0.0 0.00 0.43 0.00 93 1006.7
20260506080215 47 190 0.0 0.0 0.00 0.43 0.00 93 1006.7
20260506080110 47 219 0.0 0.0 0.00 0.43 0.00 93 1006.7
20260506073439 46 223 0.0 0.0 0.00 0.43 0.00 93 1006.5
20260506073336 46 223 0.0 0.0 0.00 0.43 0.00 93 1006.5
20260506073233 46 223 0.0 0.0 0.00 0.43 0.00 93 1006.4
20260506072647 47 254 0.0 0.0 0.00 0.43 0.00 93 1006.4
20260506072318 47 254 0.0 0.0 0.00 0.43 0.00 92 1006.3
20260506072212 47 254 0.0 0.0 0.00 0.43 0.00 92 1006.3
20260506071843 47 254 0.0 0.0 0.00 0.43 0.00 92 1006.1
20260506071738 47 254 0.0 0.0 0.00 0.43 0.00 92 1006.1
20260506071634 47 254 0.0 0.0 0.00 0.43 0.00 92 1006.1
20260506071531 47 254 0.0 0.0 0.00 0.43 0.00 92 1006.1
20260506071205 47 254 0.0 0.0 0.00 0.43 0.00 92 1006.2
20260506071058 47 254 0.0 0.0 0.00 0.43 0.00 92 1006.2
20260506070731 47 254 0.0 0.0 0.00 0.43 0.00 91 1006.1
20260506070625 47 254 0.0 0.0 0.00 0.43 0.00 91 1006.1
20260506070305 47 254 0.0 0.0 0.00 0.43 0.00 91 1005.9
20260506070202 47 254 0.0 0.0 0.00 0.43 0.00 91 1005.8
20260506062450 48 203 0.0 0.0 0.00 0.43 0.00 89 1005.5
20260506062347 48 205 0.0 0.0 0.00 0.43 0.00 89 1005.5
20260506062242 48 221 0.0 0.0 0.00 0.43 0.00 89 1005.6
20260506062139 48 221 0.0 0.0 0.00 0.43 0.00 89 1005.6
20260506062035 48 218 0.0 0.0 0.00 0.43 0.00 89 1005.7
20260506061231 48 243 0.0 0.0 0.00 0.43 0.00 90 1005.6
20260506061129 48 243 0.0 0.0 0.00 0.43 0.00 90 1005.5
20260506061024 48 243 0.0 0.0 0.00 0.43 0.00 90 1005.5
20260506060702 48 243 0.0 0.0 0.00 0.43 0.00 91 1005.5
20260506060559 48 202 0.0 0.0 0.00 0.43 0.00 91 1005.5
20260506060454 48 234 0.0 0.0 0.00 0.43 0.00 91 1005.5
20260506060352 48 211 0.0 0.0 0.00 0.43 0.00 91 1005.6
20260506060249 48 195 0.0 0.0 0.00 0.43 0.00 91 1005.6
20260506060143 48 195 0.0 0.0 0.00 0.43 0.00 91 1005.6
20260506051411 49 238 0.0 0.0 0.00 0.43 0.00 93 1005.2
20260506051304 49 238 0.0 0.0 0.00 0.43 0.00 93 1005.1
20260506051158 49 238 0.0 0.0 0.00 0.43 0.00 93 1005.1
20260506051055 49 238 0.0 0.0 0.00 0.43 0.00 93 1005.1
20260506050948 49 238 0.0 0.0 0.00 0.43 0.00 93 1005.0
20260506050842 49 238 0.0 0.0 0.00 0.43 0.00 93 1005.0
20260506050739 49 238 0.0 0.0 0.00 0.43 0.00 93 1005.0
20260506050636 49 238 0.0 0.0 0.00 0.43 0.00 93 1005.0
20260506050529 49 238 0.0 0.0 0.00 0.43 0.00 93 1005.0
20260506050423 49 238 0.0 0.0 0.00 0.43 0.00 93 1005.0
20260506050321 49 238 0.0 0.0 0.00 0.43 0.00 93 1005.0
20260506045005 50 238 0.0 0.0 0.00 0.43 0.00 92 1004.8
20260506044902 50 238 0.0 0.0 0.00 0.43 0.00 92 1004.9
20260506044319 50 238 0.0 0.0 0.00 0.43 0.00 92 1004.9
20260506043956 50 238 0.0 0.0 0.00 0.43 0.00 92 1004.8
20260506043851 50 238 0.0 0.0 0.00 0.43 0.00 92 1004.8
20260506043531 50 238 0.0 0.0 0.00 0.43 0.00 92 1004.7
20260506043429 50 238 0.0 0.0 0.00 0.43 0.00 92 1004.7
20260506043326 50 238 0.0 0.0 0.00 0.43 0.00 92 1004.7
20260506043221 50 238 0.0 0.0 0.00 0.43 0.00 91 1004.8
20260506043117 50 239 0.0 0.0 0.00 0.43 0.00 91 1004.8
20260506043013 50 238 0.0 0.0 0.00 0.43 0.00 91 1004.8
20260506042652 50 205 0.0 0.0 0.00 0.43 0.00 91 1004.8
20260506042549 50 205 0.0 0.0 0.00 0.43 0.00 91 1004.8
20260506042446 50 205 0.0 0.0 0.00 0.43 0.00 91 1004.8
20260506042342 51 205 0.0 0.0 0.00 0.43 0.00 91 1004.8
20260506042238 51 205 0.0 0.0 0.00 0.43 0.00 91 1004.8
20260506042133 51 205 0.0 0.0 0.00 0.43 0.00 91 1004.9
20260506041807 51 205 0.0 0.0 0.00 0.43 0.00 91 1004.8
20260506041704 51 205 0.0 0.0 0.00 0.43 0.00 91 1004.7
20260506041602 51 205 0.0 0.0 0.00 0.43 0.00 91 1004.7
20260506041454 51 205 0.0 0.0 0.00 0.43 0.00 91 1004.6
20260506041349 51 205 0.0 0.0 0.00 0.43 0.00 91 1004.6
20260506041247 51 205 0.0 0.0 0.00 0.43 0.00 91 1004.6
20260506041145 51 205 0.0 0.0 0.00 0.43 0.00 91 1004.6
20260506040826 51 205 0.0 0.0 0.00 0.43 0.00 91 1004.4
20260506040723 51 205 0.0 0.0 0.00 0.43 0.00 92 1004.4
20260506040619 51 185 0.0 0.0 0.00 0.43 0.00 92 1004.4
20260506040300 51 204 0.0 0.0 0.00 0.43 0.00 92 1004.2
20260506040157 51 204 0.0 0.0 0.00 0.43 0.00 92 1004.2
20260506040055 51 204 0.0 0.0 0.00 0.43 0.00 92 1004.2
20260506035948 51 161 0.0 0.0 0.00 0.43 0.43 92 1004.2
20260506035359 51 150 0.0 0.0 0.00 0.43 0.43 93 1004.3
20260506035256 51 198 0.0 0.0 0.00 0.43 0.43 93 1004.4
20260506034713 51 233 0.0 0.0 0.00 0.43 0.43 93 1004.4
20260506034605 51 196 0.0 0.0 0.00 0.43 0.43 93 1004.4
20260506034501 51 168 0.0 0.0 0.00 0.43 0.43 93 1004.3
20260506034135 51 205 0.0 0.0 0.00 0.43 0.43 93 1004.3
20260506034030 51 205 0.0 0.0 0.00 0.43 0.43 93 1004.3
20260506033928 51 205 0.0 0.0 0.00 0.43 0.43 93 1004.3
20260506033600 51 205 0.0 0.0 0.00 0.43 0.43 93 1004.2
20260506033456 51 205 0.0 0.0 0.00 0.43 0.43 93 1004.2
20260506033349 51 205 0.0 0.0 0.00 0.43 0.43 93 1004.2
20260506033242 51 205 0.0 0.0 0.00 0.43 0.43 93 1004.1
20260506032917 51 205 0.0 0.0 0.00 0.43 0.43 93 1004.0
20260506032811 51 205 0.0 0.0 0.00 0.43 0.43 93 1004.1
20260506032451 51 205 0.0 0.0 0.00 0.43 0.43 93 1003.9
20260506032121 51 212 0.0 0.0 0.00 0.43 0.43 93 1003.9
20260506032019 51 212 0.0 0.0 0.00 0.43 0.43 93 1003.9
20260506031916 51 212 0.0 0.0 0.00 0.43 0.43 93 1003.8
20260506031812 51 265 0.0 0.0 0.00 0.43 0.43 93 1003.8
20260506031708 51 200 0.0 0.0 0.00 0.43 0.43 94 1003.8
20260506031601 51 200 0.0 0.0 0.00 0.43 0.43 94 1003.8
20260506031234 51 225 0.0 0.0 0.00 0.43 0.43 94 1003.7
20260506031128 51 226 0.0 0.0 0.00 0.43 0.43 94 1003.7
20260506031025 51 226 0.0 6.0 0.00 0.43 0.43 94 1003.7
20260506030920 51 244 0.0 6.0 0.00 0.43 0.43 94 1003.7
20260506030816 51 271 0.0 4.0 0.00 0.43 0.43 94 1003.7
20260506030715 51 271 0.0 4.0 0.00 0.43 0.43 94 1003.7
20260506030611 51 236 0.0 4.0 0.00 0.43 0.43 94 1003.6
20260506030509 51 209 0.0 0.0 0.00 0.43 0.43 94 1003.6
20260506030403 51 232 0.0 0.0 0.00 0.43 0.43 94 1003.6
20260506030038 51 172 0.0 0.0 0.00 0.43 0.43 94 1003.6
20260506025714 51 172 0.0 0.0 0.00 0.43 0.43 93 1003.6
20260506025610 51 172 0.0 0.0 0.00 0.43 0.43 93 1003.6
20260506025246 51 119 0.0 0.0 0.00 0.43 0.43 93 1003.5
20260506025144 51 119 0.0 0.0 0.00 0.43 0.43 93 1003.6
20260506025041 51 119 0.0 0.0 0.00 0.43 0.43 93 1003.5
20260506024939 51 119 0.0 0.0 0.00 0.43 0.43 93 1003.5
20260506024832 51 119 0.0 0.0 0.00 0.43 0.43 93 1003.5
20260506024250 51 119 0.0 0.0 0.00 0.43 0.43 93 1003.4
20260506024144 51 119 0.0 0.0 0.00 0.43 0.43 93 1003.3
20260506024037 51 119 0.0 0.0 0.00 0.43 0.43 93 1003.4
20260506023931 51 119 0.0 0.0 0.00 0.43 0.43 93 1003.4
20260506023828 51 119 0.0 0.0 0.00 0.43 0.43 93 1003.4
20260506023725 51 119 0.0 0.0 0.00 0.43 0.43 93 1003.4
20260506023618 52 119 0.0 0.0 0.00 0.43 0.43 93 1003.3
20260506023511 52 119 0.0 0.0 0.00 0.43 0.43 93 1003.3
20260506023406 52 119 0.0 0.0 0.00 0.43 0.43 93 1003.3
20260506023303 52 119 0.0 0.0 0.00 0.43 0.43 93 1003.3
20260506022937 52 119 0.0 0.0 0.00 0.43 0.43 93 1003.3
20260506022834 52 119 0.0 0.0 0.00 0.43 0.43 93 1003.3
20260506022729 52 119 0.0 0.0 0.00 0.43 0.43 92 1003.3
20260506022623 52 119 0.0 0.0 0.00 0.43 0.43 92 1003.2
20260506022518 52 119 0.0 0.0 0.00 0.43 0.43 93 1003.2
20260506022414 52 119 0.0 0.0 0.00 0.43 0.43 93 1003.2
20260506022311 52 119 0.0 0.0 0.00 0.43 0.43 93 1003.2
20260506022206 52 119 0.0 0.0 0.00 0.43 0.43 93 1003.3
20260506021617 52 119 0.0 0.0 0.00 0.43 0.43 92 1003.1
20260506021247 52 119 0.0 0.0 0.00 0.43 0.43 92 1003.1
20260506021142 52 119 0.0 0.0 0.00 0.43 0.43 92 1003.1
20260506020558 52 119 0.0 0.0 0.00 0.43 0.43 92 1003.0
20260506020454 52 119 0.0 0.0 0.00 0.43 0.43 92 1003.0
20260506020350 52 119 0.0 0.0 0.00 0.43 0.43 92 1003.0
20260506020246 52 119 0.0 0.0 0.00 0.43 0.43 92 1003.0
20260506020141 52 119 0.0 0.0 0.00 0.43 0.43 92 1003.0
20260506020036 52 119 0.0 0.0 0.00 0.43 0.43 92 1003.0
20260506015934 53 119 0.0 0.0 0.00 0.43 0.43 92 1003.0
20260506015827 53 119 0.0 0.0 0.00 0.43 0.43 92 1003.1
20260506015722 53 119 0.0 0.0 0.00 0.43 0.43 92 1003.1
20260506015618 53 119 0.0 0.0 0.00 0.43 0.43 92 1003.1
20260506015515 53 119 0.0 0.0 0.00 0.43 0.43 92 1003.0
20260506015411 53 119 0.0 0.0 0.00 0.43 0.43 92 1003.0
20260506015046 53 119 0.0 0.0 0.00 0.43 0.43 92 1002.9
20260506014944 53 119 0.0 0.0 0.00 0.43 0.43 92 1002.8
20260506014838 53 119 0.0 0.0 0.00 0.43 0.43 92 1002.9
20260506014513 53 119 0.0 0.0 0.00 0.43 0.43 92 1002.9
20260506014148 53 119 0.0 0.0 0.00 0.43 0.43 92 1002.9
20260506013600 53 180 0.0 0.0 0.03 0.43 0.43 92 1003.1
20260506013457 53 115 0.0 0.0 0.03 0.43 0.43 92 1003.2
20260506013351 53 156 0.0 0.0 0.03 0.43 0.43 92 1003.3
20260506013244 53 141 0.0 5.0 0.03 0.43 0.43 92 1003.2
20260506013140 53 175 0.0 5.0 0.04 0.43 0.43 92 1003.1
20260506013038 53 198 0.0 0.0 0.04 0.43 0.43 92 1003.2
20260506012933 53 254 0.0 0.0 0.05 0.43 0.43 92 1003.2
20260506012828 53 29 0.0 0.0 0.06 0.43 0.43 92 1003.1
20260506012722 53 72 0.0 0.0 0.06 0.43 0.43 92 1003.1
20260506012618 53 72 0.0 0.0 0.06 0.43 0.43 92 1003.1
20260506012516 54 72 0.0 0.0 0.06 0.43 0.43 92 1003.0
20260506012410 54 72 0.0 0.0 0.06 0.43 0.43 92 1003.0
20260506012308 54 72 0.0 0.0 0.06 0.43 0.43 92 1002.9
20260506012200 54 72 0.0 0.0 0.06 0.42 0.43 92 1002.8
20260506012054 54 72 0.0 0.0 0.00 0.42 0.42 92 1002.8
20260506011947 54 72 0.0 0.0 0.00 0.42 0.42 92 1002.8
20260506011842 54 140 0.0 0.0 0.00 0.42 0.42 92 1002.8
20260506011515 54 140 0.0 0.0 0.00 0.41 0.42 92 1002.9
20260506011410 54 140 0.0 0.0 0.00 0.41 0.42 92 1002.9
20260506011304 54 140 0.0 0.0 0.00 0.41 0.41 92 1002.6
20260506011156 54 140 0.0 0.0 0.00 0.41 0.41 92 1002.7
20260506010829 54 140 0.0 0.0 0.00 0.41 0.41 92 1002.7
20260506010724 54 140 0.0 0.0 0.00 0.41 0.41 92 1002.7
20260506010618 54 174 0.0 0.0 0.00 0.41 0.41 92 1002.6
20260506010514 54 174 0.0 0.0 0.00 0.41 0.41 92 1002.6
20260506010409 54 173 0.0 0.0 0.00 0.41 0.41 92 1002.6
20260506010305 54 173 0.0 0.0 0.00 0.41 0.41 92 1002.5
20260506010202 54 173 0.0 0.0 0.00 0.41 0.41 92 1002.6
20260506005838 54 158 0.0 0.0 0.00 0.41 0.41 93 1002.6
20260506005732 54 347 0.0 0.0 0.00 0.41 0.41 93 1002.5
20260506005628 54 0 0.0 0.0 0.00 0.41 0.41 93 1002.6
20260506005525 54 300 0.0 0.0 0.00 0.41 0.41 93 1002.6
20260506005420 54 215 0.0 0.0 0.00 0.41 0.41 93 1002.5
20260506005101 55 129 0.0 0.0 0.00 0.41 0.41 93 1002.4
20260506004956 55 124 0.0 0.0 0.00 0.41 0.41 93 1002.3
20260506004853 55 124 0.0 0.0 0.00 0.41 0.41 93 1002.2
20260506004750 55 61 0.0 0.0 0.00 0.40 0.41 93 1002.1
20260506004644 55 351 0.0 0.0 0.00 0.40 0.40 93 1002.1
20260506004540 55 351 0.0 0.0 0.00 0.40 0.40 93 1002.1
20260506004216 55 250 0.0 0.0 0.00 0.40 0.40 93 1002.0
20260506004111 55 332 0.0 0.0 0.00 0.40 0.40 94 1002.0
20260506004007 55 332 0.0 0.0 0.00 0.40 0.40 94 1002.0
20260506003905 55 332 0.0 0.0 0.00 0.40 0.40 94 1002.0
20260506003758 55 342 0.0 0.0 0.00 0.40 0.40 94 1001.9
20260506003652 55 284 0.0 0.0 0.00 0.40 0.40 94 1001.9
20260506003329 55 297 0.0 0.0 0.00 0.40 0.40 94 1001.8
20260506003228 55 297 0.0 0.0 0.00 0.40 0.40 94 1001.8
20260506002901 55 297 0.0 0.0 0.00 0.40 0.40 94 1001.9
20260506002757 55 297 0.0 0.0 0.00 0.40 0.40 94 1001.8
20260506002654 55 297 0.0 0.0 0.00 0.40 0.40 94 1001.7
20260506002551 55 298 0.0 0.0 0.00 0.40 0.40 94 1001.7
20260506002446 55 217 0.0 0.0 0.00 0.40 0.40 94 1001.8
20260506002339 55 108 0.0 0.0 0.00 0.40 0.40 94 1001.8
20260506002235 55 129 0.0 0.0 0.00 0.40 0.40 94 1001.9
20260506001907 55 129 0.0 0.0 0.00 0.40 0.40 94 1001.8
20260506001801 55 129 0.0 0.0 0.00 0.40 0.40 94 1001.8
20260506001655 55 129 0.0 0.0 0.00 0.40 0.40 94 1001.7
20260506001550 55 129 0.0 0.0 0.00 0.40 0.40 94 1001.8
20260506001446 55 129 0.0 0.0 0.00 0.40 0.40 94 1001.7
20260506001343 55 129 0.0 0.0 0.00 0.40 0.40 94 1001.7
20260506001023 56 271 0.0 0.0 0.00 0.40 0.40 94 1001.7
20260506000921 56 271 0.0 0.0 0.00 0.40 0.40 94 1001.7
20260506000817 56 271 0.0 0.0 0.00 0.40 0.40 94 1001.7
20260506000712 56 271 0.0 0.0 0.00 0.40 0.40 94 1001.7
20260506000611 56 271 0.0 0.0 0.00 0.40 0.40 94 1001.6
20260506000505 56 271 0.0 0.0 0.00 0.40 0.40 94 1001.7
20260506000401 56 271 0.0 0.0 0.00 0.40 0.40 94 1001.6
20260506000041 56 271 0.0 0.0 0.03 0.40 0.40 94 1001.6
20260505235937 56 271 0.0 0.0 0.03 0.40 0.40 94 1001.6
20260505235835 56 271 0.0 0.0 0.03 0.40 0.40 94 1001.5
20260505235733 56 271 0.0 0.0 0.03 0.40 0.40 94 1001.6
20260505235151 56 271 0.0 0.0 0.06 0.40 0.40 94 1001.4
20260505235047 56 271 0.0 0.0 0.07 0.40 0.40 94 1001.5
20260505234943 56 271 0.0 0.0 0.09 0.40 0.40 94 1001.5
20260505234840 56 271 0.0 0.0 0.11 0.40 0.40 94 1001.5
20260505234735 56 271 0.0 0.0 0.15 0.40 0.40 94 1001.4
20260505234631 56 271 0.0 0.0 0.24 0.40 0.40 94 1001.4
20260505234309 56 219 0.0 0.0 0.03 0.39 0.39 94 1001.4
20260505234206 56 219 0.0 0.0 0.03 0.39 0.39 94 1001.4
20260505234104 56 219 0.0 0.0 0.03 0.39 0.39 94 1001.3
20260505233959 56 219 0.0 0.0 0.04 0.39 0.39 94 1001.4
20260505233201 56 238 0.0 0.0 0.13 0.39 0.39 94 1001.4
20260505232838 56 238 0.0 0.0 0.00 0.38 0.38 94 1001.2
20260505232736 56 238 0.0 0.0 0.00 0.38 0.38 94 1001.2
20260505232631 56 238 0.0 0.0 0.00 0.37 0.38 94 1001.2
20260505232050 56 200 0.0 0.0 0.00 0.37 0.37 94 1001.0
20260505231946 56 200 0.0 0.0 0.00 0.37 0.37 94 1001.0
20260505231842 56 200 0.0 0.0 0.00 0.37 0.37 94 1001.0
20260505231736 56 211 0.0 0.0 0.00 0.37 0.37 94 1001.0
20260505231630 56 211 0.0 0.0 0.00 0.37 0.37 94 1001.0
20260505231528 56 211 0.0 0.0 0.00 0.37 0.37 94 1000.9
20260505231203 56 211 0.0 0.0 0.00 0.37 0.37 94 1000.7
20260505231057 56 211 0.0 0.0 0.00 0.37 0.37 94 1000.8
20260505230953 56 196 0.0 0.0 0.00 0.37 0.37 94 1000.7
20260505230410 56 224 0.0 0.0 0.00 0.37 0.37 93 1000.7
20260505230302 56 224 0.0 0.0 0.00 0.37 0.37 93 1000.6
20260505230156 56 224 0.0 0.0 0.00 0.37 0.37 93 1000.5
20260505230049 56 224 0.0 0.0 0.00 0.37 0.37 93 1000.5
20260505225944 56 224 0.0 0.0 0.00 0.37 0.37 93 1000.5
20260505225837 56 224 0.0 0.0 0.00 0.37 0.37 93 1000.5
20260505225730 57 224 0.0 0.0 0.00 0.37 0.37 93 1000.5
20260505225625 57 224 0.0 0.0 0.00 0.37 0.37 93 1000.5
20260505225520 57 234 0.0 0.0 0.00 0.37 0.37 93 1000.5
20260505225152 57 346 0.0 0.0 0.00 0.37 0.37 93 1000.4
20260505225049 57 346 0.0 0.0 0.00 0.37 0.37 93 1000.4
20260505224942 57 346 0.0 0.0 0.00 0.37 0.37 93 1000.4
20260505224837 57 55 0.0 0.0 0.00 0.37 0.37 93 1000.3
20260505224729 57 55 0.0 0.0 0.00 0.37 0.37 93 1000.2
20260505224626 57 55 0.0 0.0 0.00 0.37 0.37 93 1000.2
20260505224521 57 55 0.0 0.0 0.00 0.37 0.37 93 1000.0
20260505224414 57 55 0.0 0.0 0.00 0.37 0.37 93 1000.0
20260505224310 57 55 0.0 0.0 0.00 0.37 0.37 93 999.9
20260505223729 57 55 0.0 0.0 0.00 0.37 0.37 93 999.9
20260505223405 57 55 0.0 0.0 0.00 0.37 0.37 93 999.8
20260505223258 57 55 0.0 0.0 0.00 0.37 0.37 93 999.8
20260505223153 57 55 0.0 0.0 0.00 0.37 0.37 93 999.8
20260505223048 57 55 0.0 0.0 0.00 0.37 0.37 93 999.8
20260505222945 57 55 0.0 0.0 0.00 0.37 0.37 93 999.8
20260505222838 57 55 0.0 0.0 0.00 0.37 0.37 93 999.7
20260505222732 57 55 0.0 0.0 0.00 0.37 0.37 93 999.7
20260505222628 57 55 0.0 0.0 0.00 0.37 0.37 93 999.7
20260505222524 57 55 0.0 0.0 0.00 0.37 0.37 93 999.7
20260505222417 57 55 0.0 0.0 0.00 0.37 0.37 93 999.7
20260505222315 57 55 0.0 0.0 0.00 0.37 0.37 93 999.6
20260505222208 57 55 0.0 0.0 0.00 0.37 0.37 93 999.5
20260505222103 57 55 0.0 0.0 0.00 0.37 0.37 92 999.6
20260505221739 57 55 0.0 0.0 0.00 0.37 0.37 92 999.6
20260505221634 57 55 0.0 0.0 0.00 0.37 0.37 93 999.5
20260505221310 57 55 0.0 0.0 0.00 0.37 0.37 93 999.4
20260505221208 57 55 0.0 0.0 0.00 0.37 0.37 92 999.4
20260505221100 57 55 0.0 0.0 0.00 0.37 0.37 92 999.2
20260505220957 57 55 0.0 0.0 0.00 0.37 0.37 92 999.2
20260505220850 57 55 0.0 0.0 0.00 0.37 0.37 92 999.2
20260505220746 57 55 0.0 0.0 0.00 0.37 0.37 92 999.3
20260505220639 57 38 0.0 0.0 0.00 0.37 0.37 92 999.3
20260505220533 57 38 0.0 0.0 0.00 0.37 0.37 92 999.3
20260505220431 57 296 0.0 0.0 0.00 0.37 0.37 92 999.3
20260505220328 57 296 0.0 0.0 0.00 0.37 0.37 92 999.3
20260505220226 57 296 0.0 0.0 0.00 0.37 0.37 92 999.3
20260505220119 57 296 0.0 0.0 0.00 0.37 0.37 92 999.3
20260505215754 57 290 0.0 0.0 0.00 0.37 0.37 92 999.4
20260505215651 57 290 0.0 0.0 0.00 0.37 0.37 92 999.3
20260505215331 57 63 0.0 0.0 0.00 0.37 0.37 92 999.3
20260505215225 57 13 0.0 0.0 0.00 0.37 0.37 92 999.3
20260505215123 57 329 0.0 0.0 0.00 0.37 0.37 92 999.4
20260505215015 57 329 0.0 0.0 0.00 0.37 0.37 92 999.4
20260505214910 57 329 0.0 0.0 0.00 0.37 0.37 92 999.2
20260505214805 57 329 0.0 0.0 0.00 0.37 0.37 92 999.2
20260505214702 57 329 0.0 0.0 0.00 0.37 0.37 92 999.2
20260505214557 57 355 0.0 0.0 0.00 0.37 0.37 92 999.2
20260505214455 57 344 0.0 0.0 0.00 0.37 0.37 92 999.1
20260505214350 57 336 0.0 0.0 0.00 0.37 0.37 92 999.1
20260505214244 57 58 0.0 0.0 0.00 0.37 0.37 92 998.9
20260505214138 57 0 0.0 0.0 0.00 0.37 0.37 92 999.1
20260505214035 57 0 0.0 0.0 0.00 0.37 0.37 92 999.1
20260505213931 57 339 0.0 0.0 0.03 0.37 0.37 92 999.2
20260505213823 57 339 0.0 0.0 0.03 0.37 0.37 92 999.3
20260505213717 57 339 0.0 0.0 0.03 0.37 0.37 92 999.3
20260505213611 57 339 0.0 0.0 0.03 0.37 0.37 91 999.3
20260505213508 57 339 0.0 0.0 0.03 0.37 0.37 91 999.3
20260505213404 57 346 0.0 2.0 0.03 0.37 0.37 91 999.3
20260505212822 57 305 0.0 0.0 0.07 0.37 0.37 91 999.3
20260505212457 58 299 0.0 0.0 0.13 0.37 0.37 91 999.3
20260505211909 58 240 0.0 9.0 0.00 0.35 0.35 90 999.5
20260505211802 58 314 0.0 9.0 0.00 0.35 0.35 90 999.3
20260505211654 58 298 0.0 0.0 0.00 0.35 0.35 90 999.2
20260505211550 58 263 0.0 5.0 0.00 0.35 0.35 90 999.1
20260505211004 59 271 0.0 0.0 0.03 0.35 0.35 89 998.8
20260505210901 59 179 0.0 0.0 0.03 0.35 0.35 89 998.8
20260505210754 59 263 0.0 0.0 0.04 0.35 0.35 89 998.8
20260505210647 59 256 0.0 0.0 0.04 0.35 0.35 89 998.7
20260505210543 59 250 0.0 0.0 0.05 0.35 0.35 88 998.5
20260505210440 59 201 0.0 0.0 0.06 0.35 0.35 88 998.6
20260505210336 59 199 0.0 0.0 0.07 0.35 0.35 87 998.6
20260505210230 60 286 0.0 0.0 0.08 0.35 0.35 87 998.4
20260505210126 60 286 1.0 0.0 0.11 0.35 0.35 86 998.4
20260505210019 60 318 2.0 0.0 0.14 0.35 0.35 85 998.4
20260505205916 60 19 2.0 0.0 0.17 0.35 0.35 84 998.4
20260505205810 61 316 2.0 0.0 0.17 0.34 0.35 84 998.4
20260505205706 61 244 3.0 24.0 0.18 0.34 0.34 83 998.3
20260505205559 62 215 3.0 24.0 0.29 0.34 0.34 81 998.3
20260505205452 63 296 3.0 24.0 1.94 0.31 0.34 80 998.4
20260505205345 64 260 3.0 24.0 2.66 0.28 0.32 78 998.6
20260505205237 65 274 3.0 24.0 2.59 0.23 0.28 75 998.5
20260505205134 66 300 2.0 15.0 0.00 0.22 0.23 73 998.4
20260505205028 66 253 1.0 14.0 0.00 0.22 0.22 73 998.3
20260505204921 66 259 1.0 12.0 0.00 0.22 0.22 73 997.9
20260505204819 66 284 1.0 12.0 0.00 0.22 0.22 73 997.5
20260505204714 66 309 1.0 12.0 0.00 0.22 0.22 73 997.3
20260505204612 66 244 1.0 12.0 0.00 0.22 0.22 73 996.9
20260505204507 66 277 1.0 12.0 0.00 0.22 0.22 73 996.8
20260505204403 66 175 1.0 12.0 0.00 0.22 0.22 73 996.8
20260505204257 66 235 0.0 10.0 0.00 0.22 0.22 73 996.9
20260505203933 66 267 1.0 10.0 0.00 0.22 0.22 74 996.8
20260505203352 66 276 1.0 0.0 0.00 0.22 0.22 75 997.0
20260505203245 66 225 2.0 15.0 0.00 0.22 0.22 75 997.1
20260505203138 66 280 3.0 15.0 0.00 0.22 0.22 75 997.1
20260505203032 66 227 2.0 15.0 0.00 0.22 0.22 76 997.2
20260505202929 65 210 2.0 15.0 0.00 0.22 0.22 76 997.2
20260505202600 65 226 2.0 16.0 0.00 0.22 0.22 76 997.0
20260505202455 65 226 2.0 16.0 0.00 0.22 0.22 76 996.9
20260505202134 65 177 0.0 14.0 0.00 0.22 0.22 78 996.9
20260505202029 65 241 1.0 12.0 0.00 0.22 0.22 78 997.0
20260505201927 65 157 1.0 12.0 0.00 0.22 0.22 79 997.1
20260505201824 65 242 1.0 12.0 0.00 0.22 0.22 79 997.1
20260505201719 65 205 1.0 12.0 0.00 0.22 0.22 79 997.1
20260505201615 65 242 1.0 12.0 0.00 0.22 0.22 79 997.0
20260505200807 65 227 0.0 9.0 0.00 0.22 0.22 81 997.4
20260505200705 65 220 0.0 9.0 0.00 0.22 0.22 81 997.4
20260505200559 65 196 0.0 9.0 0.00 0.22 0.22 82 997.3
20260505200457 65 208 0.0 1.0 0.00 0.22 0.22 83 997.4
20260505200352 65 313 0.0 0.0 0.00 0.22 0.22 82 997.4
20260505200026 65 202 0.0 11.0 0.00 0.22 0.22 83 997.3
20260505195922 65 194 0.0 5.0 0.00 0.22 0.22 84 997.2
20260505195816 65 269 0.0 5.0 0.00 0.22 0.22 84 997.2
20260505195446 65 305 0.0 0.0 0.00 0.22 0.22 84 997.4
20260505195339 65 218 0.0 0.0 0.00 0.22 0.22 84 997.4
20260505195233 65 215 0.0 11.0 0.00 0.22 0.22 84 997.5
20260505195131 64 232 0.0 11.0 0.00 0.22 0.22 84 997.6
20260505195027 64 229 0.0 0.0 0.00 0.22 0.22 84 997.6
20260505194924 64 213 0.0 0.0 0.00 0.22 0.22 84 997.5
20260505194559 64 289 0.0 8.0 0.00 0.22 0.22 85 997.7
20260505194235 64 313 0.0 8.0 0.00 0.22 0.22 85 997.8
20260505194131 64 222 0.0 8.0 0.00 0.22 0.22 85 997.8
20260505194025 64 213 0.0 8.0 0.00 0.22 0.22 85 997.9
20260505193922 64 234 0.0 0.0 0.00 0.22 0.22 86 997.9
20260505193559 64 220 0.0 0.0 0.00 0.22 0.22 88 997.9
20260505193456 64 193 0.0 0.0 0.00 0.22 0.22 87 997.9
20260505193349 64 219 0.0 0.0 0.00 0.22 0.22 87 997.8
20260505193243 64 174 0.0 0.0 0.00 0.22 0.22 87 997.9
20260505192918 64 211 0.0 7.0 0.00 0.22 0.22 88 997.9
20260505192812 64 198 0.0 7.0 0.00 0.22 0.22 88 998.0
20260505192707 63 258 0.0 7.0 0.00 0.22 0.22 89 997.9
20260505192602 63 198 0.0 6.0 0.00 0.22 0.22 89 997.9
20260505192456 63 233 0.0 5.0 0.00 0.22 0.22 89 998.0
20260505192353 63 329 0.0 0.0 0.00 0.22 0.22 89 997.9
20260505191812 62 257 0.0 0.0 0.00 0.22 0.22 91 998.1
20260505191705 62 161 0.0 0.0 0.00 0.22 0.22 91 998.2
20260505191342 62 177 0.0 1.0 0.00 0.22 0.22 91 998.3
20260505191240 61 198 0.0 4.0 0.00 0.22 0.22 91 998.4
20260505190655 61 207 0.0 3.0 0.00 0.22 0.22 92 998.5
20260505190550 61 183 0.0 0.0 0.00 0.22 0.22 92 998.4
20260505190448 61 263 0.0 0.0 0.00 0.22 0.22 93 998.4
20260505190122 60 134 0.0 5.0 0.00 0.22 0.22 93 998.4
20260505190018 60 140 0.0 5.0 0.00 0.22 0.22 93 998.5
20260505185651 60 237 0.0 0.0 0.00 0.22 0.22 93 998.5
20260505185547 60 284 0.0 0.0 0.00 0.22 0.22 93 998.5
20260505185441 60 297 0.0 4.0 0.00 0.22 0.22 93 998.5
20260505185334 60 188 0.0 4.0 0.00 0.22 0.22 93 998.5
20260505185227 60 218 0.0 2.0 0.00 0.22 0.22 93 998.5
20260505185120 60 228 0.0 2.0 0.00 0.22 0.22 93 998.5
20260505185018 59 193 0.0 1.0 0.00 0.22 0.22 93 998.6
20260505184432 59 200 0.0 0.0 0.00 0.22 0.22 93 998.7
20260505184104 59 205 0.0 0.0 0.00 0.22 0.22 93 998.8
20260505183740 59 186 0.0 0.0 0.00 0.22 0.22 93 998.8
20260505183637 59 186 0.0 0.0 0.00 0.22 0.22 93 998.8
20260505183311 59 209 0.0 0.0 0.00 0.22 0.22 94 998.9
20260505182945 59 100 0.0 0.0 0.00 0.22 0.22 93 998.9
20260505182842 59 100 0.0 0.0 0.00 0.22 0.22 93 998.9
20260505182739 58 100 0.0 0.0 0.00 0.22 0.22 93 998.9
20260505182633 58 100 0.0 0.0 0.00 0.22 0.22 93 998.9
20260505182527 59 100 0.0 0.0 0.00 0.22 0.22 93 999.0
20260505182202 58 159 0.0 0.0 0.00 0.22 0.22 94 999.0
20260505182057 58 159 0.0 0.0 0.00 0.22 0.22 94 999.1
20260505181950 58 159 0.0 0.0 0.00 0.22 0.22 94 999.1
20260505181623 58 159 0.0 0.0 0.00 0.22 0.22 94 999.1
20260505181521 58 159 0.0 0.0 0.00 0.22 0.22 94 999.1
20260505181153 57 159 0.0 0.0 0.00 0.22 0.22 93 999.0
20260505181047 57 159 0.0 0.0 0.00 0.22 0.22 93 999.1
20260505180942 57 159 0.0 0.0 0.00 0.22 0.22 93 999.1
20260505180622 57 159 0.0 0.0 0.00 0.22 0.22 93 999.2
20260505180515 57 159 0.0 0.0 0.00 0.22 0.22 93 999.2
20260505180410 57 159 0.0 0.0 0.00 0.22 0.22 93 999.2
20260505180045 57 159 0.0 0.0 0.00 0.22 0.22 93 999.3
20260505175942 57 159 0.0 0.0 0.00 0.22 0.22 93 999.3
20260505175838 57 159 0.0 0.0 0.00 0.22 0.22 93 999.3
20260505175735 57 159 0.0 0.0 0.03 0.22 0.22 93 999.3
20260505175631 57 159 0.0 0.0 0.03 0.22 0.22 93 999.3
20260505175529 57 159 0.0 0.0 0.03 0.22 0.22 93 999.3
20260505175421 57 159 0.0 0.0 0.03 0.22 0.22 93 999.3
20260505175318 57 157 0.0 0.0 0.03 0.22 0.22 93 999.2
20260505175213 57 157 0.0 0.0 0.03 0.22 0.22 93 999.2
20260505175108 57 157 0.0 0.0 0.04 0.22 0.22 93 999.3
20260505175005 57 150 0.0 0.0 0.05 0.22 0.22 93 999.4
20260505174857 57 180 0.0 0.0 0.05 0.22 0.22 93 999.4
20260505174755 57 180 0.0 0.0 0.07 0.22 0.22 93 999.4
20260505174433 57 169 0.0 0.0 0.09 0.22 0.22 93 999.5
20260505174106 56 169 0.0 0.0 0.09 0.22 0.22 93 999.4
20260505174002 56 169 0.0 0.0 0.12 0.22 0.22 93 999.4
20260505173854 56 169 0.0 0.0 0.13 0.22 0.22 93 999.4
20260505173750 56 169 0.0 0.0 0.13 0.22 0.22 93 999.5
20260505173646 56 169 0.0 0.0 0.13 0.21 0.22 93 999.5
20260505173542 56 169 0.0 0.0 0.14 0.21 0.21 93 999.6
20260505173435 56 169 0.0 0.0 0.22 0.21 0.21 93 999.6
20260505173332 56 169 0.0 0.0 0.29 0.20 0.21 92 999.6
20260505173228 56 169 0.0 0.0 0.29 0.19 0.20 92 999.6
20260505173120 57 169 0.0 0.0 0.29 0.19 0.20 92 999.5
20260505173015 57 169 0.0 0.0 0.03 0.18 0.19 92 999.5
20260505172432 57 169 0.0 0.0 0.04 0.18 0.18 92 999.5
20260505172326 57 169 0.0 0.0 0.05 0.18 0.18 92 999.5
20260505171743 57 168 0.0 0.0 0.11 0.18 0.18 92 999.4
20260505171640 57 168 0.0 0.0 0.11 0.18 0.18 92 999.5
20260505171537 57 161 0.0 0.0 0.11 0.18 0.18 92 999.5
20260505171434 57 161 0.0 0.0 0.11 0.18 0.18 92 999.5
20260505171332 57 161 0.0 0.0 0.15 0.18 0.18 92 999.5
20260505171229 57 161 0.0 0.0 0.19 0.17 0.18 91 999.6
20260505170907 57 221 0.0 0.0 0.42 0.15 0.17 91 999.7
20260505170802 57 228 0.0 0.0 0.42 0.15 0.16 91 999.8
20260505170657 57 228 0.0 0.0 0.33 0.14 0.15 91 999.8
20260505170555 57 205 0.0 0.0 0.22 0.14 0.14 91 999.8
20260505170451 57 219 0.0 0.0 0.22 0.14 0.14 91 999.8
20260505170346 57 258 0.0 0.0 0.40 0.13 0.14 91 999.7
20260505170242 57 201 0.0 0.0 0.22 0.12 0.13 91 999.6
20260505165921 57 201 0.0 0.0 0.22 0.11 0.11 90 999.8
20260505165816 57 217 0.0 0.0 0.29 0.11 0.11 90 999.8
20260505165454 57 238 0.0 0.0 0.81 0.07 0.09 90 999.9
20260505165351 57 244 0.0 0.0 0.88 0.06 0.07 90 1000.0
20260505165246 57 246 0.0 0.0 0.09 0.06 0.06 90 1000.1
20260505164923 57 268 0.0 0.0 0.11 0.05 0.06 89 999.8
20260505164816 58 250 0.0 0.0 0.11 0.05 0.06 89 999.7
20260505164714 58 180 0.0 0.0 0.14 0.05 0.05 88 999.7
20260505164611 58 244 0.0 0.0 0.16 0.05 0.05 88 999.7
20260505164506 58 215 0.0 0.0 0.16 0.04 0.05 88 999.8
20260505164401 58 209 0.0 6.0 0.16 0.04 0.04 88 999.9
20260505164259 58 213 0.0 6.0 0.14 0.04 0.04 87 999.9
20260505164156 58 231 0.0 0.0 0.14 0.03 0.04 87 999.8
20260505164053 58 237 0.0 0.0 0.15 0.03 0.03 87 999.9
20260505163728 59 214 0.0 0.0 0.26 0.02 0.03 86 999.8
20260505163623 59 214 0.0 0.0 0.26 0.02 0.03 85 999.8
20260505163520 59 267 0.0 0.0 0.12 0.01 0.02 85 999.7
20260505163416 59 205 0.0 10.0 0.12 0.01 0.02 84 999.7
20260505163311 59 252 0.0 10.0 0.08 0.01 0.01 84 999.8
20260505163209 59 257 0.0 9.0 0.08 0.01 0.01 83 999.9
20260505163107 60 214 0.0 9.0 0.08 0.00 0.01 83 999.9
20260505163000 60 205 0.0 9.0 0.00 0.00 0.00 82 999.8
20260505162855 60 204 0.0 9.0 0.00 0.00 0.00 82 999.8
20260505162753 60 212 0.0 9.0 0.00 0.00 0.00 81 999.7
20260505162650 60 263 0.0 2.0 0.00 0.00 0.00 81 999.7
20260505162545 61 226 0.0 2.0 0.00 0.00 0.00 81 999.7
20260505162440 61 209 0.0 0.0 0.00 0.00 0.00 80 999.7
20260505162334 61 224 0.0 9.0 0.00 0.00 0.00 79 999.8
20260505162229 61 221 0.0 9.0 0.00 0.00 0.00 79 999.8
20260505162122 61 182 0.0 7.0 0.00 0.00 0.00 79 999.8
20260505162017 61 220 0.0 8.0 0.00 0.00 0.00 77 999.8
20260505161914 61 217 0.0 8.0 0.00 0.00 0.00 77 999.8
20260505161812 62 194 0.0 0.0 0.00 0.00 0.00 77 999.8
20260505161706 62 171 0.0 8.0 0.00 0.00 0.00 76 999.9
20260505161600 62 222 0.0 8.0 0.00 0.00 0.00 76 999.9
20260505161456 62 180 0.0 0.0 0.00 0.00 0.00 75 999.9
20260505161353 62 198 0.0 1.0 0.00 0.00 0.00 75 999.9
20260505161026 62 213 0.0 9.0 0.00 0.00 0.00 74 999.9
20260505160920 62 205 0.0 9.0 0.00 0.00 0.00 74 1000.0
20260505160814 62 196 0.0 9.0 0.00 0.00 0.00 73 999.9
20260505160710 63 214 0.0 9.0 0.00 0.00 0.00 73 1000.0
20260505160604 63 221 0.0 9.0 0.00 0.00 0.00 73 1000.0
20260505160501 63 211 0.0 9.0 0.00 0.00 0.00 73 1000.0
20260505160140 63 232 0.0 0.0 0.00 0.00 0.00 72 1000.0
20260505153332 65 252 0.0 5.0 0.00 0.00 0.00 60 999.8
20260505153224 65 288 0.0 0.0 0.00 0.00 0.00 60 999.8
20260505153117 65 155 0.0 0.0 0.00 0.00 0.00 60 999.8
20260505153013 65 218 0.0 0.0 0.00 0.00 0.00 60 999.8
20260505152908 65 192 0.0 0.0 0.00 0.00 0.00 60 999.7
20260505152803 65 248 0.0 1.0 0.00 0.00 0.00 60 999.8
20260505152655 65 217 0.0 1.0 0.00 0.00 0.00 60 999.8
20260505152550 65 222 0.0 0.0 0.00 0.00 0.00 60 999.8
20260505152447 65 209 0.0 0.0 0.00 0.00 0.00 60 999.8
20260505152344 65 189 0.0 0.0 0.00 0.00 0.00 61 999.8
20260505152240 65 202 0.0 0.0 0.00 0.00 0.00 61 999.8
20260505152135 64 213 0.0 0.0 0.00 0.00 0.00 61 999.8
20260505152033 64 183 0.0 0.0 0.00 0.00 0.00 62 999.8
20260505151926 64 140 0.0 10.0 0.00 0.00 0.00 61 999.8
20260505151823 64 222 0.0 10.0 0.00 0.00 0.00 61 999.8
20260505151717 64 163 0.0 0.0 0.00 0.00 0.00 61 999.8
20260505151610 64 227 0.0 0.0 0.00 0.00 0.00 62 999.9
20260505151506 64 235 0.0 0.0 0.00 0.00 0.00 62 1000.0
20260505151403 64 223 0.0 7.0 0.00 0.00 0.00 61 1000.0
20260505151259 64 295 0.0 7.0 0.00 0.00 0.00 61 1000.1
20260505151153 63 165 0.0 7.0 0.00 0.00 0.00 62 1000.1
20260505150350 63 278 0.0 9.0 0.00 0.01 0.00 61 1000.3
20260505150243 63 186 0.0 9.0 0.00 0.01 0.00 62 1000.3
20260505140542 62 207 0.0 0.0 0.00 0.03 0.00 60 1000.6
20260505140440 62 199 0.0 0.0 0.00 0.03 0.00 60 1000.6
20260505140334 62 242 0.0 0.0 0.00 0.03 0.00 60 1000.6
20260505140229 61 243 0.0 0.0 0.00 0.03 0.00 60 1000.6